Location: Austin
(30.3000°N, 97.7500°W)
Time: 06:22:56
(UTC-06:00)

Cosmos 2279 Rocket - Pass Details

Date: 03 March 2026
Orbit: 962 x 978 km, 82.9° (Epoch: 6 March)

Event Time Altitude Azimuth Distance (km) Brightness Sun altitude
Rises 19:21:40 0° 350° (N) 3,652 7.1 -11.6°
Reaches altitude 10° 19:24:11 10° 348° (NNW) 2,704 6.5 -12.2°
Maximum altitude 19:30:18 66° 268° (W) 1,048 4.4 -13.5°
Drops below altitude 10° 19:36:25 10° 187° (S) 2,701 6.4 -14.8°
Sets 19:38:56 0° 184° (S) 3,647 7.0 -15.4°
